Wind_Speed
8 9 9 9 9 10 10 11 11 12 12 13 14 14 15 16 17 18 19 21 22 23 24 26 27 29 30 32 33 34 35 36 37 38 39 40 40 40 40 40 39 38 36 35 34 33 33 32 31 30 28 27 26 25 23 21 19 18 16 15 13 11 9 8 6 3 2 3 3 3 3 5 7 10 13 16 18 19 22 23 23 23 23 23 23 22 22 21
8 8 8 9 9 10 10 11 12 12 13 13 14 15 15 16 17 18 18 19 20 21 23 24 25 26 28 30 31 33 34 35 36 37 39 40 40 40 41 41 40 39 38 37 36 35 34 34 33 32 31 29 28 27 25 24 22 20 18 17 15 13 11 11 9 6 4 4 3 2 2 4 6 8 11 14 16 17 19 22 22 22 22 22 22 23 23 22
7 8 9 9 10 10 11 12 12 13 14 14 15 16 16 17 17 18 19 19 20 21 22 23 23 25 26 27 29 31 32 33 34 36 38 39 39 40 41 41 41 41 40 39 38 37 36 35 35 34 33 32 30 28 27 26 24 22 20 19 18 16 14 13 11 9 7 5 4 2 1 2 4 6 9 12 14 16 17 20 21 21 21 21 22 23 23 22
8 9 10 10 11 12 12 13 14 15 15 16 16 17 17 18 19 19 20 20 21 21 22 22 23 24 25 25 27 28 29 31 32 35 36 38 39 40 41 41 41 41 41 40 39 38 38 37 36 35 35 33 32 31 29 28 26 24 22 21 19 18 16 15 13 11 10 8 5 2 1 1 2 4 6 9 12 14 15 17 19 20 20 20 21 22 23 22
10 11 11 12 13 13 14 15 16 17 17 18 18 19 19 20 20 21 22 22 22 23 23 24 24 24 24 25 26 27 27 28 30 32 34 36 37 39 40 41 41 41 41 40 40 40 39 38 38 37 36 35 34 33 31 30 28 27 25 23 21 20 18 16 15 13 12 10 6 3 2 1 1 2 4 6 9 12 13 15 17 18 19 19 20 21 22 23
12 13 13 14 15 15 16 17 18 18 19 20 20 21 21 22 23 23 24 24 24 25 25 25 25 25 25 26 26 26 26 27 28 30 31 33 35 36 39 40 40 41 41 41 40 40 40 39 39 39 38 37 36 35 34 32 30 29 27 25 23 22 20 18 17 15 14 11 8 4 3 3 3 2 2 4 7 9 11 12 14 16 18 18 19 20 21 22
14 14 15 16 16 17 18 19 20 20 21 22 22 23 23 24 25 25 25 26 26 26 26 27 27 27 27 27 27 27 27 27 27 28 29 31 32 34 36 38 39 40 41 40 40 40 40 40 40 40 40 39 38 37 36 34 32 31 29 27 25 23 22 21 19 17 16 13 11 7 4 6 6 4 3 2 5 7 9 10 12 14 16 16 17 19 20 21
16 16 17 18 19 20 20 21 22 22 23 23 24 25 25 26 27 27 27 28 28 28 28 28 28 28 28 28 28 28 28 28 28 28 28 29 30 32 33 35 37 39 40 39 39 39 40 40 41 41 41 40 39 38 37 36 34 33 31 29 27 26 25 23 21 19 17 15 13 10 7 8 9 7 6 4 3 5 6 8 9 12 14 15 15 17 18 20
18 19 19 20 21 21 22 23 24 24 25 26 26 27 28 28 29 29 29 30 30 30 30 30 30 30 30 30 29 29 29 29 29 29 29 29 30 31 31 33 35 37 38 38 38 38 39 41 42 42 41 41 41 40 39 38 36 35 33 31 29 28 26 25 23 21 19 16 15 13 9 10 11 10 9 7 4 5 5 6 7 9 12 14 14 15 17 18
20 21 21 22 22 23 24 25 25 26 27 28 28 29 30 30 31 31 31 32 32 32 32 32 32 31 31 31 31 31 31 30 30 30 30 30 30 31 31 32 33 34 35 36 36 37 39 41 42 43 42 42 42 41 40 39 38 37 35 33 31 30 28 27 25 23 20 17 16 15 11 11 13 12 11 9 6 5 4 4 4 6 9 12 12 13 15 16
22 23 23 23 24 25 25 26 27 27 28 29 30 30 31 32 32 33 33 34 34 34 33 33 33 33 32 32 32 32 32 31 32 32 32 32 32 32 32 31 32 32 33 34 35 36 39 41 42 43 42 41 42 42 42 40 39 38 37 35 34 32 30 28 27 25 22 19 19 19 16 15 15 12 11 11 8 6 5 4 2 3 6 9 11 11 13 15
24 24 25 25 26 26 27 27 28 29 29 30 31 31 32 33 33 33 34 34 35 34 34 34 34 34 33 33 33 33 33 32 33 33 33 33 33 33 33 32 32 32 32 32 33 35 38 40 42 44 43 41 41 42 43 42 41 39 38 37 36 34 31 30 29 27 25 23 22 21 19 17 17 16 13 12 10 8 6 5 2 1 4 7 9 10 11 13
26 26 27 27 27 28 28 29 30 30 31 32 32 32 33 33 34 34 35 35 35 35 34 34 34 34 34 34 34 34 34 34 34 34 34 34 34 34 34 34 34 33 33 32 33 34 36 38 41 43 43 41 41 42 43 42 41 41 40 39 38 35 33 32 31 30 28 26 24 23 22 19 19 21 18 14 13 12 9 7 5 2 1 4 7 9 9 11
28 28 28 29 29 30 31 31 32 33 33 33 33 33 33 33 33 34 35 35 35 35 34 34 34 34 35 35 35 35 35 35 34 34 35 35 35 35 35 35 35 35 34 34 34 34 36 37 39 42 43 42 41 42 42 43 42 42 41 40 39 37 36 34 33 33 31 29 27 25 26 24 22 22 19 16 15 14 11 9 7 4 2 1 5 7 7 9
30 30 30 30 31 32 33 34 34 35 34 34 34 33 33 33 33 34 35 35 35 35 35 34 34 34 34 35 35 35 35 35 35 35 35 35 35 36 36 37 37 37 36 36 35 35 36 36 37 40 41 42 41 41 42 42 42 42 42 41 41 40 38 35 34 35 33 33 32 29 28 28 26 24 21 19 17 16 13 10 9 7 4 2 3 5 6 7
32 32 32 33 34 34 35 36 36 36 36 35 34 34 33 34 34 34 34 35 35 35 35 34 34 34 34 34 35 35 36 36 36 36 36 36 36 36 37 37 38 38 38 37 37 37 37 37 36 38 40 41 41 41 41 42 42 43 43 43 43 42 40 38 36 37 36 35 35 34 30 28 29 28 25 22 20 18 15 12 11 9 6 5 2 4 5 6
34 34 35 35 36 37 38 38 38 38 38 37 36 35 35 35 35 35 35 35 35 35 35 35 34 34 34 34 35 35 36 36 36 36 36 36 36 37 37 38 38 39 39 38 38 38 38 38 38 38 39 40 40 41 41 41 42 44 44 44 44 43 42 40 38 38 39 37 37 37 34 29 29 29 27 24 23 21 17 15 14 11 9 7 5 3 4 5
37 37 37 38 38 39 40 40 40 40 40 39 37 37 36 36 36 35 35 34 34 34 34 34 34 34 34 35 35 35 36 36 36 36 36 37 37 37 37 38 38 39 39 39 39 40 40 40 40 39 40 39 39 40 40 40 42 44 45 45 45 43 43 42 41 41 42 41 40 40 38 34 32 30 27 25 24 23 20 17 15 12 11 9 7 5 4 5
39 39 40 40 41 41 42 43 43 42 41 40 39 38 38 37 36 35 35 34 33 33 33 34 34 34 34 35 35 35 36 36 36 36 37 37 37 38 38 38 38 39 40 40 40 41 41 41 41 40 40 40 39 39 39 40 42 44 45 46 46 43 42 44 45 44 43 43 42 42 41 39 36 34 31 27 25 25 21 18 16 15 13 12 10 8 6 5
41 41 42 42 43 44 45 45 44 43 42 41 40 39 38 37 37 36 35 33 33 32 32 32 33 33 34 34 35 35 35 36 36 36 37 37 38 38 38 38 39 39 39 40 41 41 41 41 41 41 41 41 40 39 39 40 42 44 45 46 47 46 43 45 47 46 44 44 44 43 42 40 39 37 35 32 28 26 24 22 19 18 16 15 12 10 8 7
43 43 44 45 45 46 46 45 44 43 42 41 39 38 37 37 36 35 34 33 32 31 31 31 31 32 33 33 34 34 35 35 36 36 37 37 37 38 38 38 39 39 39 40 40 41 41 41 42 42 43 43 42 40 40 41 41 43 45 46 47 48 46 46 48 48 47 46 46 44 43 41 40 39 37 35 32 29 28 27 24 22 19 17 15 12 11 9
44 45 46 47 47 47 46 45 44 43 42 40 39 37 36 35 34 34 33 32 32 31 30 29 29 30 31 33 33 34 34 35 35 36 36 37 37 37 38 38 39 39 39 39 40 41 41 41 42 43 44 44 44 43 42 42 41 42 44 46 47 47 48 48 48 48 48 48 47 45 45 44 42 41 39 37 35 33 32 30 27 24 22 19 17 15 13 11
46 47 48 48 47 47 46 45 44 42 41 39 37 36 34 33 33 33 33 32 31 30 29 28 27 28 29 31 32 32 33 34 35 36 36 36 37 37 38 38 38 38 39 39 40 40 41 42 43 43 44 45 45 45 45 44 43 43 44 47 47 48 49 49 48 48 48 48 48 48 47 46 44 43 41 39 39 37 34 32 30 27 25 22 19 17 15 13
48 48 48 48 47 46 45 44 42 41 39 37 35 34 33 32 32 33 33 32 31 29 28 27 26 26 27 29 30 31 32 33 34 35 35 36 37 37 37 37 38 38 38 39 40 41 42 42 43 44 44 45 46 46 47 46 44 44 45 46 48 49 50 50 49 49 49 49 50 51 50 49 47 45 43 41 41 40 38 35 32 29 29 26 21 18 17 15
49 49 48 47 46 45 44 42 41 39 37 35 34 33 32 32 33 33 33 31 30 28 27 26 25 25 25 27 28 29 30 31 32 33 34 35 36 36 37 37 37 38 38 39 40 41 42 42 43 44 44 45 45 46 47 47 46 46 46 46 47 47 49 51 51 51 51 50 51 52 52 50 48 47 46 44 42 42 40 38 34 32 32 29 24 20 19 18
49 48 47 46 44 43 42 40 39 37 36 35 33 33 33 33 33 33 32 31 29 27 25 24 24 24 24 24 26 27 28 30 30 31 32 33 34 35 36 37 37 38 38 39 40 40 41 42 43 44 44 45 45 46 47 48 48 48 47 46 46 46 48 50 51 52 52 51 51 53 53 52 50 48 48 46 43 43 42 40 37 35 34 32 27 23 21 20
48 47 46 44 42 41 40 39 37 36 36 35 34 34 34 34 33 32 31 29 28 26 24 22 22 22 22 23 24 25 26 27 28 29 30 31 32 33 34 35 36 36 38 38 39 40 40 41 43 44 44 45 45 46 47 48 49 48 48 49 47 46 47 49 50 51 52 52 53 54 54 54 53 50 49 47 45 45 43 41 39 37 35 34 31 27 24 22
46 44 43 42 40 39 39 38 38 37 37 36 36 35 34 33 32 31 29 27 26 24 22 21 21 20 20 21 22 23 24 25 25 25 26 27 28 29 30 31 33 34 36 37 37 39 39 40 42 44 44 45 46 47 48 49 49 49 50 50 48 47 48 48 49 50 51 52 53 55 55 55 53 51 49 48 47 46 43 41 40 39 38 37 35 31 27 25
43 42 41 40 40 40 40 39 39 39 38 38 36 35 34 32 30 28 27 26 25 23 21 21 20 19 19 20 20 21 22 22 22 22 22 23 24 24 26 27 29 30 32 34 35 36 38 39 41 42 44 45 46 47 48 49 50 50 50 50 50 50 50 50 50 50 51 53 54 55 56 55 53 50 48 48 49 48 45 43 42 42 42 40 39 35 31 28
42 41 41 41 41 41 41 40 40 40 39 37 36 34 32 30 27 25 25 24 23 22 21 20 19 19 18 18 18 19 20 20 20 19 19 19 20 21 22 23 24 26 28 30 31 33 35 37 39 41 43 44 45 47 48 49 50 50 51 51 52 52 52 52 52 52 52 53 54 55 56 56 54 52 49 49 51 52 50 48 47 46 45 44 42 39 35 32
42 41 41 41 40 40 40 40 39 38 37 35 34 32 29 27 24 23 23 23 23 22 21 19 18 18 17 17 18 18 19 18 17 17 17 17 18 18 19 20 21 22 24 26 27 29 31 33 35 38 40 43 44 46 47 49 50 50 52 54 54 54 54 55 56 54 53 52 53 54 55 56 55 53 52 51 53 55 54 51 49 48 47 47 45 42 38 34
40 39 38 37 37 37 36 36 35 35 34 32 31 29 27 24 22 21 21 22 22 21 20 18 17 17 17 17 17 17 18 17 16 16 16 16 16 16 17 17 18 20 22 23 24 26 28 29 32 34 37 39 41 44 45 47 49 50 53 55 55 55 56 57 58 57 55 54 53 54 55 57 55 55 56 55 54 56 55 51 49 49 50 49 46 43 41 38
36 35 34 33 32 32 32 32 31 31 31 30 28 26 24 22 20 19 19 20 21 20 19 18 17 16 16 16 16 17 17 16 16 16 16 15 15 15 16 16 17 19 20 22 23 24 26 27 29 31 33 35 38 40 43 45 48 50 53 54 54 56 57 58 59 59 58 57 56 55 55 58 58 59 61 58 55 55 54 51 50 50 52 52 48 44 44 41
35 34 33 31 30 30 30 29 29 29 29 28 26 25 22 20 19 17 17 19 19 19 18 17 17 16 16 16 16 17 17 17 16 16 15 15 15 16 16 17 18 19 20 22 23 24 25 27 28 29 31 32 34 37 40 43 46 48 52 54 54 55 58 59 60 60 59 59 59 57 57 58 60 61 62 58 56 57 56 54 52 51 52 54 51 47 46 44
34 33 32 31 30 30 29 28 27 27 27 26 25 23 21 20 18 17 16 17 18 17 17 17 16 16 16 16 16 17 18 18 17 16 16 16 17 17 17 18 19 19 20 22 23 24 26 27 28 30 31 32 33 35 37 40 43 46 50 53 54 55 58 59 61 62 62 62 62 59 58 58 59 61 61 59 60 60 58 57 56 54 53 55 54 51 49 47
34 33 32 31 30 30 29 28 27 27 26 26 25 23 21 20 18 17 16 15 16 16 16 16 16 15 15 16 17 18 18 18 18 17 18 18 18 18 18 19 19 20 21 22 23 24 26 27 29 30 32 33 34 35 36 38 40 44 48 51 52 53 56 59 62 63 64 64 63 61 60 60 60 60 61 62 64 64 61 58 59 57 54 55 55 51 51 50
36 34 33 31 30 30 29 28 27 27 26 25 24 22 20 20 19 17 16 15 15 16 15 16 16 15 15 16 17 18 19 19 19 19 19 18 18 19 19 20 21 21 22 22 23 25 26 27 29 30 32 34 35 37 38 39 40 42 46 49 51 52 55 58 61 63 65 65 64 64 64 62 61 61 64 66 65 66 65 61 59 59 56 54 54 52 52 52
38 36 34 33 31 30 29 28 28 27 26 25 24 22 21 21 19 18 17 17 17 17 17 16 16 15 15 16 17 18 19 19 20 20 20 19 19 20 20 21 22 23 23 23 24 25 26 27 29 30 31 33 35 37 40 41 42 43 44 46 49 51 54 57 59 62 64 66 66 66 67 66 64 63 66 69 67 67 70 67 62 61 58 55 54 54 54 54
38 37 36 35 33 32 30 28 28 27 26 25 24 22 22 22 21 20 20 20 20 20 20 19 19 18 18 18 18 19 20 20 20 21 21 21 20 21 22 23 24 25 25 25 25 25 26 27 28 29 30 31 33 36 39 41 43 44 45 46 48 51 54 56 58 60 63 66 67 68 69 68 66 66 67 70 70 70 73 73 69 65 63 60 57 57 56 56
38 37 36 36 35 34 32 29 28 27 27 26 25 24 24 23 22 22 23 23 24 23 23 23 22 22 21 21 21 21 21 21 21 22 22 22 22 23 23 24 25 26 27 26 25 25 25 26 27 28 29 30 31 33 37 40 42 45 47 48 50 51 53 55 57 60 63 65 68 71 71 69 68 70 69 68 71 73 74 76 74 70 68 66 62 59 59 58
39 38 37 36 36 35 34 32 30 28 27 27 26 27 27 25 24 25 26 26 26 25 25 24 24 24 24 24 24 24 24 24 24 24 24 24 24 25 25 26 26 27 28 27 26 25 25 25 26 27 28 29 30 31 34 37 40 43 46 49 51 53 54 55 57 61 63 64 68 71 72 70 71 73 72 70 72 74 75 76 76 72 68 68 67 63 61 61
42 40 38 37 37 37 35 34 32 30 28 28 28 29 29 28 27 28 28 27 27 27 26 26 26 26 27 27 27 27 27 26 26 26 26 26 27 27 28 28 28 29 29 29 28 26 24 24 25 26 27 28 29 30 32 34 36 38 42 46 50 54 56 57 58 61 63 65 68 70 71 73 75 75 74 73 73 73 75 76 77 75 69 68 71 68 64 62
44 42 41 39 38 38 37 36 35 33 31 30 30 30 30 29 29 30 30 29 28 28 27 28 28 27 28 29 29 29 28 28 29 28 28 28 28 29 30 31 31 31 31 31 30 27 25 25 26 27 27 27 28 30 31 31 32 34 36 40 45 51 56 59 60 62 63 65 67 69 70 73 76 76 75 76 75 73 74 75 77 77 73 69 71 72 68 65
45 44 43 41 40 39 37 37 36 35 33 32 31 32 31 30 30 31 31 29 29 29 28 29 30 29 29 29 29 29 29 29 30 30 29 29 30 31 32 33 33 33 33 32 30 28 26 26 27 27 28 27 28 30 30 29 30 30 32 36 40 46 52 57 61 63 64 66 67 69 70 72 76 79 77 76 75 74 74 75 76 79 78 74 71 73 72 68
46 45 45 43 42 40 38 37 37 36 35 34 33 33 33 32 31 31 31 30 30 30 30 30 31 30 30 30 29 29 29 30 30 30 29 29 30 31 32 34 35 35 35 34 31 28 27 28 28 28 29 28 28 30 30 28 28 28 30 32 36 41 47 54 59 63 65 67 69 71 71 72 76 79 79 77 76 74 73 74 76 78 80 77 71 70 72 70
46 45 46 45 44 42 40 39 38 37 37 36 35 34 34 33 32 32 32 31 31 31 31 31 31 31 30 30 30 30 30 30 30 29 29 29 30 31 33 35 36 37 36 34 32 30 30 29 29 29 30 29 28 29 28 27 27 27 27 29 32 36 42 49 56 60 64 67 70 73 74 74 74 76 78 79 77 76 75 74 75 78 80 78 73 69 70 72
47 46 46 46 46 44 43 41 39 38 39 38 37 37 37 35 34 33 33 32 32 32 32 31 32 31 30 30 31 31 32 32 31 30 30 31 31 32 34 36 37 38 37 35 34 33 32 31 31 31 31 30 29 29 28 27 26 26 26 27 28 31 36 43 51 56 62 66 69 73 76 77 76 74 76 79 79 78 77 75 75 77 80 80 75 70 70 73
48 46 45 46 46 46 45 43 41 40 39 39 39 40 40 38 36 35 34 33 32 32 32 32 32 32 32 32 32 32 32 32 31 31 31 31 32 33 35 36 37 37 37 36 36 35 34 34 33 32 32 31 30 28 28 27 26 25 25 26 26 28 31 37 44 51 57 63 68 73 77 79 79 76 73 74 78 79 78 77 76 77 80 81 79 74 71 73
49 47 46 45 46 47 46 45 43 42 40 40 39 40 41 40 38 37 36 34 33 32 32 32 32 32 32 33 33 32 30 30 30 30 29 30 31 33 34 35 36 36 36 37 36 35 35 36 35 34 34 33 30 28 28 27 26 25 25 26 26 26 27 32 37 44 51 58 65 71 76 79 81 80 74 69 73 78 79 78 78 77 78 80 80 79 73 71
49 48 46 45 45 47 47 46 45 43 42 41 39 39 40 40 39 38 37 36 34 32 32 32 31 31 33 33 32 30 28 29 29 28 28 28 28 30 31 32 33 33 34 36 36 35 35 36 36 35 35 34 31 28 28 28 27 25 25 26 26 25 25 27 32 38 45 52 60 67 72 77 81 85 82 73 71 75 75 76 78 78 79 78 78 81 78 71
47 47 47 46 45 46 47 47 46 44 43 42 41 40 40 39 39 39 37 36 35 34 33 33 31 31 32 32 31 29 28 28 28 27 26 26 26 27 28 29 30 30 31 33 35 35 35 36 36 35 35 35 32 29 28 28 27 26 26 27 26 24 24 25 27 33 40 46 54 59 65 72 79 86 88 81 76 74 72 73 74 74 78 80 79 83 82 74
45 46 46 45 45 45 46 46 46 45 44 44 42 41 40 39 39 39 38 37 36 35 34 34 33 32 32 32 31 29 29 29 28 27 26 25 25 26 27 28 29 29 30 32 33 34 34 35 36 35 35 35 32 30 29 28 27 26 26 26 25 24 24 23 24 29 35 41 48 53 59 67 74 82 87 85 82 79 77 75 69 64 72 82 83 85 87 81
Wind_Direction
205 209 214 216 220 223 225 229 232 235 238 240 242 243 244 245 246 246 246 246 245 245 245 245 245 245 244 243 242 241 240 240 240 240 240 240 240 240 240 239 238 237 236 235 235 235 236 236 235 236 235 235 234 233 232 231 229 226 225 227 226 222 223 228 227 236 294 299 329 29 41 42 40 36 39 40 39 37 34 33 31 31 34 36 40 44 48 49
215 220 224 227 230 232 234 236 238 240 241 243 244 245 246 246 247 247 247 247 247 246 246 245 246 245 245 245 244 243 241 241 241 241 240 239 239 240 240 240 239 238 237 236 235 235 236 236 236 236 236 235 234 233 232 231 229 226 224 225 226 220 218 221 219 217 233 263 285 327 356 37 41 34 37 39 40 40 35 33 33 34 36 37 39 44 48 49
234 238 240 243 246 247 249 249 250 250 250 249 249 249 250 250 250 250 249 249 249 248 247 246 245 245 245 245 245 244 243 242 242 241 241 240 239 239 240 239 239 238 237 236 236 236 236 236 235 235 235 235 235 234 233 231 229 227 224 223 224 221 217 215 216 217 228 251 265 288 326 39 40 28 34 37 38 41 37 33 34 37 38 38 39 42 47 49
249 252 255 257 258 260 260 261 261 261 260 259 258 257 256 256 255 254 253 252 251 250 249 248 247 245 245 245 245 245 244 243 243 243 242 241 240 239 239 239 239 239 237 237 236 236 236 236 235 235 235 235 235 235 234 232 230 228 224 222 223 222 218 215 216 215 223 242 238 222 274 34 36 27 32 34 34 39 39 34 34 39 42 41 40 40 44 47
257 260 261 264 265 266 267 266 267 267 267 266 265 264 263 262 260 259 257 256 254 253 251 250 248 247 246 245 245 245 245 244 244 244 243 242 241 241 240 239 239 239 238 237 236 236 235 236 236 235 235 234 234 234 234 233 231 230 226 222 221 221 220 216 215 214 218 231 225 210 244 267 335 18 29 27 30 35 39 35 34 40 44 43 42 40 42 46
262 264 265 267 269 269 270 270 270 270 270 270 269 269 268 267 265 264 262 260 258 256 255 253 251 249 248 246 245 244 244 245 245 245 244 243 243 242 241 240 239 238 238 237 236 236 236 235 235 235 234 234 233 233 233 233 232 231 228 223 220 221 221 218 215 214 214 220 224 226 255 271 294 319 338 9 22 29 36 36 33 40 46 45 45 42 41 45
264 266 268 270 271 273 273 273 273 273 273 273 273 272 271 270 268 267 266 264 262 260 258 256 254 252 250 249 247 245 244 244 244 245 246 245 244 243 242 241 240 239 238 237 237 236 236 235 235 235 234 234 233 232 232 232 232 231 229 226 221 219 221 220 216 215 212 212 221 229 260 278 283 284 273 313 3 14 31 36 31 39 48 48 47 45 42 44
268 270 271 273 274 275 276 277 277 277 277 277 276 275 274 273 271 270 268 267 265 263 261 259 257 255 253 251 249 247 245 244 244 244 245 245 245 244 243 242 241 240 238 237 236 236 236 235 234 234 234 234 233 232 232 231 231 231 230 228 223 219 220 221 218 216 212 208 215 222 234 261 270 271 259 259 323 349 18 35 30 35 48 51 49 49 46 45
274 274 275 276 277 278 279 280 280 280 280 279 279 278 277 276 274 273 271 269 267 265 263 261 259 257 255 253 251 249 247 245 244 243 243 244 245 244 243 243 242 241 239 237 236 236 236 235 234 233 233 234 233 233 232 231 231 230 230 228 226 221 218 220 220 216 214 208 212 220 224 242 252 256 250 243 272 315 354 24 29 29 46 54 51 52 50 47
277 278 278 279 279 280 281 281 281 281 281 281 280 279 279 278 276 275 273 271 268 266 264 261 260 259 257 255 252 251 249 247 245 243 242 243 243 244 244 243 243 242 240 238 236 235 235 235 235 233 232 232 233 233 232 231 230 230 229 229 227 224 219 219 220 217 214 209 211 218 215 220 230 238 244 236 244 283 321 354 26 23 39 57 55 55 55 52
280 280 280 281 282 282 282 283 283 283 283 282 281 280 279 278 277 275 274 272 269 267 265 262 260 259 258 256 254 252 250 248 246 244 243 242 242 242 242 242 243 242 241 238 236 235 235 235 235 233 231 230 232 233 232 231 229 229 229 229 228 226 221 218 219 217 213 208 211 216 204 200 212 222 235 230 233 259 284 309 359 18 29 57 60 59 59 57
283 283 284 284 285 285 286 286 286 286 286 285 283 282 280 279 277 275 274 272 270 268 266 264 261 259 257 256 255 253 251 249 248 246 244 242 241 241 241 241 241 241 241 239 237 236 236 235 235 234 231 229 230 231 232 231 229 228 227 228 227 226 223 219 218 217 213 207 210 216 207 202 211 211 218 225 235 248 256 276 275 7 19 54 65 63 64 63
287 287 287 288 289 289 290 291 291 292 291 290 288 286 284 281 279 276 274 273 270 269 267 264 262 260 257 255 254 253 252 250 248 247 245 244 242 241 241 240 240 240 240 239 238 237 237 236 236 235 231 228 227 229 230 230 229 229 227 227 226 226 224 220 218 217 215 209 208 215 211 209 212 206 210 226 236 242 242 258 256 216 5 49 69 71 69 68
290 290 291 291 292 292 293 294 295 295 295 293 292 290 287 285 282 279 276 273 271 269 267 265 263 260 257 255 253 253 251 250 249 247 246 245 243 242 241 240 239 239 239 238 237 237 237 237 237 236 233 229 226 227 228 229 229 229 227 226 225 224 223 220 218 217 216 210 206 212 210 208 209 206 214 228 233 237 235 244 249 220 199 57 74 78 77 74
292 293 293 293 293 294 295 297 298 298 298 297 295 293 290 287 284 281 278 275 272 270 268 265 263 261 258 255 253 252 251 250 249 248 246 245 244 242 241 240 239 239 238 237 237 237 237 238 238 237 235 230 227 225 226 228 228 228 227 226 225 223 221 220 218 216 217 213 207 210 211 210 210 211 220 226 226 231 230 233 240 222 200 193 92 87 86 82
294 294 294 294 295 296 297 299 300 300 300 299 298 296 293 290 287 284 281 277 274 271 268 266 264 261 259 256 254 252 251 249 248 248 247 245 244 243 242 241 240 238 238 237 237 237 237 238 238 238 237 233 229 226 225 226 227 228 227 225 224 222 220 219 218 216 216 215 211 211 214 213 212 213 218 220 220 223 221 223 230 222 206 197 152 103 96 93
295 295 295 296 297 298 300 301 302 302 303 302 301 299 296 293 290 287 283 280 277 273 270 267 264 261 259 257 254 252 251 250 248 247 247 246 244 243 242 241 240 239 238 237 237 237 237 237 237 238 238 235 231 227 224 224 225 227 226 225 224 222 220 219 218 217 215 215 213 213 213 211 210 209 213 215 217 217 212 214 221 221 214 200 179 145 112 108
295 296 296 297 299 300 302 303 303 304 304 303 302 301 299 296 293 290 287 283 279 275 272 268 265 262 259 257 254 252 251 250 249 247 247 246 244 243 242 241 240 239 238 237 236 236 237 236 237 237 238 236 233 229 225 223 223 225 225 225 223 222 221 218 216 217 216 215 214 214 213 212 210 209 210 214 217 216 210 209 217 220 219 209 188 172 141 125
295 296 297 298 300 301 302 303 304 304 304 304 303 302 300 298 296 293 290 286 282 277 273 269 266 263 260 257 255 252 251 249 248 247 246 245 244 243 242 240 240 239 238 237 236 236 236 236 236 237 238 238 235 231 227 223 223 223 224 224 222 220 220 218 215 216 216 215 216 215 215 216 218 216 214 215 219 220 212 209 218 221 220 217 199 181 169 146
295 296 297 298 300 301 302 303 303 304 304 304 303 302 301 300 298 296 292 288 284 280 275 271 267 263 259 256 254 252 250 249 247 246 246 245 244 243 242 240 240 239 238 237 236 236 236 236 236 237 237 237 236 232 228 225 223 223 223 223 222 219 219 218 216 215 215 215 216 216 217 218 220 219 215 215 219 220 214 210 217 222 220 221 210 190 181 166
294 295 296 297 299 300 301 302 303 303 303 303 303 302 301 300 299 297 294 291 287 283 278 273 268 263 259 256 253 251 249 248 246 245 244 244 244 243 241 240 239 239 238 237 236 236 235 235 235 236 236 237 236 234 231 228 225 224 223 222 222 221 219 219 217 216 215 215 216 216 217 217 219 219 216 215 216 217 214 210 214 218 217 220 217 200 190 183
293 294 295 297 298 300 301 301 302 302 302 302 302 302 301 300 299 297 296 294 291 287 281 276 270 264 259 255 252 249 247 246 245 244 243 243 243 242 241 240 239 239 238 237 236 236 235 235 234 234 235 236 236 234 233 230 226 225 224 222 222 221 220 220 218 217 216 215 215 215 216 217 217 219 217 214 214 216 215 212 213 215 213 216 219 210 199 193
292 293 295 296 298 299 299 300 301 301 302 302 302 301 300 299 299 298 298 297 294 290 285 280 274 267 261 255 251 248 246 244 244 243 242 242 241 241 241 240 240 239 238 237 236 236 235 234 234 234 234 235 235 235 233 231 228 226 225 223 222 221 221 220 219 218 216 215 215 215 216 216 216 218 218 215 213 216 217 215 214 215 212 211 216 217 209 200
292 293 295 296 297 298 299 299 300 301 301 301 301 300 300 299 299 299 299 298 295 292 288 284 278 270 262 255 251 248 245 243 242 242 241 241 240 240 240 240 239 239 238 237 236 235 235 234 234 234 234 234 235 235 234 233 230 228 226 225 222 221 221 220 219 218 216 215 216 216 216 216 216 216 217 215 214 215 218 218 217 216 214 210 211 216 213 204
292 293 294 295 296 297 298 299 299 300 300 300 300 299 299 299 299 300 300 298 295 292 289 285 280 272 262 255 250 248 246 243 242 241 240 240 240 239 239 239 239 239 238 237 237 236 235 235 235 235 234 234 235 235 235 235 232 230 228 227 224 223 222 221 219 219 216 214 216 217 216 216 217 216 215 216 215 215 218 220 219 218 217 214 211 214 213 206
292 293 294 295 296 297 297 298 298 299 299 299 298 299 299 299 299 300 299 297 294 292 289 285 280 272 263 255 249 246 246 245 243 241 240 239 239 239 239 239 238 238 238 237 237 237 236 235 235 235 235 235 235 235 235 235 234 231 230 228 226 224 224 223 221 220 218 215 216 216 216 216 215 215 215 215 215 215 217 219 219 218 219 217 214 216 215 209
292 293 294 295 295 296 296 297 297 297 297 297 297 298 298 298 299 299 298 295 293 291 288 284 277 270 263 256 251 247 245 244 243 242 241 239 239 238 238 238 238 238 238 238 238 237 236 235 236 236 235 235 235 235 235 235 234 232 231 229 227 225 226 225 223 222 220 217 216 216 216 216 215 215 215 213 214 215 216 217 218 218 219 218 216 218 218 211
291 292 293 294 294 294 295 295 296 296 296 295 296 296 297 297 298 297 295 293 292 290 287 282 275 267 260 255 253 250 247 245 243 242 242 241 240 239 239 239 238 238 238 238 238 237 236 236 235 236 236 236 235 235 235 234 234 232 231 230 227 225 226 226 225 224 222 220 218 217 216 216 215 216 216 214 213 213 213 216 218 218 217 217 216 218 219 214
290 291 292 292 293 293 294 294 294 294 294 294 294 294 295 295 295 294 292 290 290 289 284 279 272 264 257 253 251 250 248 246 243 241 241 241 241 241 241 240 240 240 239 239 238 238 237 236 235 235 236 236 236 236 236 235 234 232 232 231 228 226 225 225 225 223 223 222 220 218 216 216 214 215 216 215 214 212 211 213 217 218 218 218 218 217 218 215
290 290 291 292 292 292 293 293 293 293 292 292 292 292 292 292 291 289 288 289 289 285 280 276 270 262 256 251 248 247 247 245 243 242 241 242 242 243 243 243 243 243 242 241 240 240 238 237 236 235 235 235 236 236 236 236 235 233 232 230 228 227 225 225 225 223 223 223 221 219 217 215 213 212 213 215 214 213 210 211 213 216 218 219 218 218 218 216
290 291 291 292 292 292 293 293 292 292 291 291 290 290 289 289 287 285 286 288 287 282 278 274 268 261 255 250 246 245 244 242 241 240 240 242 242 243 244 244 244 245 244 244 243 242 240 239 238 236 236 235 235 235 236 236 235 233 232 230 228 226 225 226 226 223 222 222 222 221 218 216 214 212 213 215 215 213 212 212 213 215 218 218 216 217 219 218
292 292 293 294 294 294 294 293 293 292 291 290 289 287 286 284 281 281 286 289 285 280 277 272 265 258 253 248 244 243 242 240 239 237 237 238 239 241 243 245 246 248 248 247 246 245 243 241 239 238 237 236 235 234 234 235 235 234 233 231 228 226 225 225 226 224 222 221 221 221 219 216 213 212 213 214 214 213 212 211 212 214 217 215 214 217 219 218
293 294 295 296 296 296 296 295 294 293 291 289 287 284 282 279 275 279 288 290 285 279 275 270 263 255 248 243 242 241 240 238 237 236 235 236 239 242 244 247 248 250 251 251 250 249 248 245 243 240 238 236 235 234 233 233 233 233 233 232 229 227 225 225 225 225 223 221 220 219 218 217 214 213 213 212 211 211 211 210 210 213 215 212 211 215 218 218
293 293 294 295 296 297 297 298 297 295 292 289 285 282 279 273 270 277 290 293 287 280 274 269 263 255 244 237 236 238 239 237 235 234 235 237 240 244 246 248 249 250 251 252 252 251 250 249 248 245 242 239 237 235 233 232 232 232 233 233 230 228 226 225 224 225 224 222 222 219 218 218 215 214 214 212 208 208 208 209 209 211 213 212 211 213 216 218
292 292 293 293 293 294 296 298 299 298 294 289 284 280 275 268 267 274 288 294 291 283 274 268 262 256 245 233 230 233 237 238 235 232 233 236 240 243 247 248 251 252 253 253 254 252 250 249 248 248 247 244 241 239 236 233 231 230 231 232 230 228 227 225 224 224 224 223 222 220 219 219 216 215 215 213 209 208 206 206 208 210 211 212 213 214 214 215
290 291 292 292 292 291 292 294 298 299 296 289 284 278 271 265 266 272 282 291 292 286 279 271 265 259 249 236 229 229 232 236 237 237 236 238 241 245 249 252 254 257 258 259 259 257 254 251 247 246 246 245 244 243 240 236 233 230 230 231 230 228 228 226 224 222 223 223 221 220 219 219 217 215 215 214 211 209 206 203 204 207 209 210 212 213 214 214
289 289 289 290 290 290 289 289 292 296 296 290 283 276 268 264 266 271 277 284 287 286 282 277 272 266 258 246 235 230 230 232 237 242 243 245 249 252 255 258 260 262 264 264 265 264 261 258 253 247 244 243 242 242 242 240 237 233 231 230 229 228 227 227 225 223 223 223 222 220 219 218 217 215 215 215 213 211 209 205 203 204 206 208 209 211 213 214
287 288 287 287 287 287 288 287 287 290 291 288 282 274 267 265 268 271 275 279 281 282 282 278 274 268 262 254 244 238 236 235 238 244 248 251 256 260 263 266 267 269 269 270 270 269 267 265 261 254 248 245 241 240 240 240 239 237 234 231 229 227 226 227 226 225 223 222 222 221 220 219 217 216 216 215 213 212 212 210 208 206 206 207 208 209 211 213
287 286 286 285 284 284 285 285 283 283 284 284 279 273 267 266 269 272 275 277 279 281 280 278 274 269 263 258 252 247 245 242 244 248 252 256 261 266 270 273 275 276 276 276 275 273 270 268 267 262 255 250 245 242 239 237 237 237 236 234 231 229 226 226 226 226 224 222 222 222 221 220 219 218 218 216 213 213 212 212 213 212 211 210 209 208 208 212
288 286 284 283 283 282 282 282 281 279 278 278 276 272 268 267 269 272 275 279 280 281 279 277 274 271 267 264 260 258 256 254 254 256 260 263 267 271 274 277 279 280 280 280 278 277 274 271 269 267 263 257 252 247 242 238 235 235 235 234 233 231 228 225 225 225 225 223 222 222 221 220 220 219 219 218 215 215 213 213 215 216 215 215 212 209 208 210
287 286 284 282 281 280 280 280 278 276 274 273 272 270 268 268 270 272 275 278 280 281 279 277 274 272 270 267 266 264 263 263 263 264 267 270 273 275 277 278 280 281 281 281 280 279 277 274 271 269 267 263 257 251 245 240 237 235 234 233 233 233 230 227 224 224 225 224 223 223 221 220 220 220 220 218 217 216 214 214 216 216 216 216 215 212 209 210
284 284 284 282 279 278 278 277 276 274 272 270 268 267 268 269 270 271 274 276 278 279 279 277 274 271 269 268 267 267 267 268 268 269 270 273 275 277 278 278 279 280 280 281 281 280 278 276 273 271 269 266 261 254 247 242 239 238 237 235 233 232 231 229 225 223 224 224 224 223 221 221 221 220 219 219 218 217 215 215 216 216 215 215 215 213 210 209
280 281 281 281 280 278 277 276 275 273 271 268 267 266 267 268 268 270 271 273 275 275 275 275 274 271 269 268 268 268 269 269 270 270 271 272 274 275 277 277 278 278 279 279 280 279 278 277 275 273 270 267 262 256 250 244 241 240 240 240 237 235 232 230 227 225 223 224 225 224 223 222 222 221 220 219 220 218 217 217 217 216 215 215 214 213 211 211
278 277 277 278 279 278 276 275 273 271 269 268 267 267 266 266 266 268 269 270 271 271 271 271 272 271 270 270 270 269 269 269 269 270 271 271 272 273 275 276 277 278 278 278 278 278 278 277 276 274 272 268 262 257 253 248 246 245 243 242 241 239 235 231 228 226 224 222 223 224 224 223 222 222 220 219 220 219 218 218 218 217 216 215 214 213 213 213
276 274 274 274 275 276 275 274 272 269 268 267 267 267 267 265 265 265 267 268 268 268 268 267 268 269 270 271 272 272 271 270 270 271 271 271 272 272 273 274 275 276 276 276 277 278 278 277 276 275 274 271 263 257 256 254 252 250 248 247 245 242 239 235 230 227 224 222 221 221 223 223 223 223 221 219 219 219 219 219 218 218 217 216 214 213 214 213
273 271 270 270 271 273 273 272 271 269 266 265 266 267 268 267 265 265 265 265 265 266 266 266 266 267 269 271 272 272 273 272 272 273 273 272 272 272 272 273 273 274 273 275 276 276 277 276 276 275 275 273 265 258 257 258 257 255 254 253 251 246 243 238 234 229 225 222 220 219 220 221 223 224 222 220 218 218 218 218 219 219 219 216 213 212 213 212
272 270 268 267 267 269 270 271 270 269 266 265 265 266 267 268 267 266 265 265 265 265 265 265 265 266 268 269 270 271 272 273 274 274 274 274 273 272 271 270 270 271 272 274 274 274 275 275 274 273 274 274 267 259 258 260 261 262 262 260 257 253 248 242 237 232 228 223 220 218 218 219 220 222 223 221 220 219 217 217 218 219 219 217 213 211 211 211
270 268 267 265 264 265 267 268 268 268 267 266 264 265 266 267 267 267 267 266 266 266 266 265 265 265 266 268 269 269 271 272 274 274 274 274 273 271 270 269 270 271 272 273 273 273 273 272 272 271 272 273 269 261 258 260 264 267 269 269 265 259 255 248 240 235 231 227 222 218 217 217 218 220 221 220 220 220 218 217 217 219 219 218 214 211 211 211
268 266 265 264 263 262 263 264 265 265 267 266 265 265 265 266 267 267 267 266 266 266 265 265 265 266 266 267 268 269 270 271 272 273 274 274 273 272 271 271 272 272 273 274 273 272 271 270 270 270 270 272 269 262 258 260 265 269 272 273 271 266 261 253 244 236 232 228 225 221 218 216 216 218 219 218 218 219 219 217 217 219 220 219 217 214 212 212
265 264 264 263 262 260 260 261 262 262 264 265 266 265 264 264 265 266 266 265 265 264 264 265 266 266 266 266 267 268 268 269 271 273 274 275 274 275 274 275 274 274 273 273 272 271 270 268 268 268 268 270 269 263 259 260 265 270 274 276 275 271 267 258 247 239 232 228 226 224 220 217 216 217 216 216 216 216 218 218 217 219 220 220 218 216 213 212
263 262 262 261 261 259 258 259 259 259 260 263 264 265 265 263 263 263 264 264 264 263 263 265 266 266 266 266 265 265 266 268 271 273 274 275 276 277 277 277 277 275 273 272 271 270 268 267 266 266 267 268 269 265 260 260 265 270 274 277 278 277 274 265 253 242 233 227 224 223 221 218 218 217 215 214 215 214 215 216 216 218 220 219 219 217 214 213
263 262 261 260 260 259 258 257 258 257 257 259 262 263 264 263 261 260 261 262 262 261 262 264 265 265 265 264 263 264 265 268 270 271 272 274 276 278 278 279 280 280 278 274 272 270 268 266 266 265 265 266 267 266 261 260 265 270 274 278 281 281 280 274 263 247 235 226 222 221 219 218 218 217 214 213 214 214 214 213 213 216 218 218 218 217 215 215
Height
10945 10945 10946 10946 10947 10947 10947 10947 10947 10947 10947 10947 10948 10948 10948 10948 10948 10949 10949 10950 10950 10951 10952 10952 10953 10954 10955 10956 10957 10958 10959 10960 10961 10963 10964 10966 10968 10969 10972 10974 10976 10979 10982 10984 10985 10986 10988 10989 10991 10992 10994 10995 10997 10999 11000 11002 11003 11005 11007 11008 11009 11011 11012 11012 11013 11014 11013 11012 11010 11009 11008 11007 11006 11005 11004 11002 11000 10999 10997 10995 10993 10991 10989 10987 10985 10982 10980 10979
10944 10945 10945 10945 10945 10946 10946 10946 10946 10946 10946 10946 10946 10946 10947 10947 10947 10947 10947 10948 10948 10949 10949 10950 10950 10951 10952 10953 10953 10955 10956 10957 10958 10959 10960 10962 10964 10966 10968 10970 10973 10975 10978 10980 10982 10983 10984 10986 10988 10990 10991 10993 10995 10997 10998 11000 11001 11003 11005 11006 11007 11010 11011 11011 11012 11013 11013 11012 11010 11009 11009 11008 11007 11006 11005 11004 11002 11000 10998 10996 10994 10993 10991 10989 10987 10984 10982 10981
10943 10943 10944 10944 10944 10944 10944 10944 10944 10944 10944 10945 10945 10945 10945 10945 10945 10945 10946 10946 10946 10946 10947 10947 10948 10948 10949 10950 10950 10951 10953 10954 10955 10955 10956 10958 10960 10962 10964 10966 10968 10971 10974 10976 10978 10980 10981 10983 10985 10987 10988 10990 10992 10994 10996 10997 10999 11001 11003 11004 11006 11007 11009 11010 11011 11011 11011 11011 11010 11009 11008 11008 11007 11007 11006 11005 11003 11002 11000 10998 10996 10994 10992 10991 10989 10986 10984 10982
10942 10942 10942 10942 10943 10943 10943 10943 10943 10943 10943 10943 10943 10943 10943 10943 10943 10943 10943 10944 10944 10944 10944 10944 10945 10946 10946 10947 10947 10948 10950 10951 10951 10952 10953 10955 10957 10958 10960 10962 10964 10967 10970 10972 10974 10976 10978 10980 10981 10983 10985 10987 10990 10991 10993 10995 10997 10999 11001 11002 11004 11005 11007 11008 11009 11010 11010 11010 11010 11009 11008 11008 11008 11007 11007 11006 11005 11003 11002 11000 10998 10996 10994 10992 10991 10989 10986 10984
10941 10941 10941 10941 10941 10941 10941 10941 10941 10941 10941 10941 10941 10941 10941 10941 10941 10941 10941 10941 10941 10941 10942 10942 10942 10943 10944 10944 10945 10946 10947 10947 10948 10949 10950 10951 10953 10954 10956 10958 10960 10962 10965 10968 10970 10972 10974 10976 10978 10980 10982 10984 10987 10988 10990 10992 10994 10996 10998 11000 11002 11003 11005 11006 11007 11008 11009 11009 11009 11009 11009 11009 11008 11008 11007 11007 11006 11004 11003 11001 10999 10997 10995 10994 10992 10991 10988 10986
10940 10940 10940 10940 10940 10939 10939 10939 10939 10939 10939 10939 10938 10938 10938 10938 10938 10938 10938 10938 10938 10938 10939 10939 10939 10940 10941 10941 10942 10943 10944 10945 10945 10946 10947 10948 10950 10951 10952 10954 10957 10958 10961 10964 10966 10969 10971 10972 10974 10976 10978 10981 10983 10985 10987 10989 10991 10993 10996 10998 11000 11002 11003 11005 11006 11007 11008 11009 11009 11009 11009 11009 11009 11008 11008 11007 11006 11005 11004 11002 11001 10999 10997 10995 10994 10993 10991 10988
10938 10938 10938 10938 10938 10938 10937 10937 10937 10937 10937 10936 10936 10936 10936 10935 10935 10935 10935 10935 10935 10935 10935 10936 10936 10937 10938 10938 10939 10940 10941 10942 10943 10943 10944 10945 10946 10947 10949 10951 10953 10955 10957 10960 10962 10965 10966 10968 10969 10971 10974 10977 10979 10982 10984 10986 10989 10991 10993 10996 10998 11000 11001 11003 11004 11006 11007 11008 11009 11010 11010 11009 11009 11008 11008 11008 11007 11006 11005 11003 11002 11000 10998 10997 10996 10994 10993 10991
10936 10936 10936 10936 10936 10935 10935 10935 10935 10934 10934 10934 10933 10933 10932 10932 10932 10932 10931 10931 10931 10931 10932 10932 10932 10933 10934 10935 10936 10937 10938 10939 10940 10940 10941 10942 10942 10944 10945 10947 10949 10951 10953 10956 10958 10960 10962 10963 10964 10967 10971 10973 10975 10978 10980 10983 10986 10988 10990 10993 10996 10998 10999 11001 11003 11004 11006 11008 11009 11010 11011 11010 11009 11008 11008 11008 11007 11006 11005 11004 11003 11002 11000 10998 10997 10996 10994 10993
10934 10934 10934 10934 10933 10933 10933 10932 10932 10932 10932 10931 10930 10930 10929 10929 10928 10928 10928 10927 10927 10927 10928 10928 10928 10929 10930 10931 10932 10933 10934 10935 10936 10937 10938 10938 10939 10940 10942 10943 10944 10946 10949 10952 10954 10956 10956 10957 10960 10964 10967 10969 10972 10974 10977 10980 10982 10985 10988 10990 10993 10995 10997 10999 11001 11003 11005 11007 11008 11009 11011 11010 11009 11008 11008 11008 11008 11007 11006 11005 11004 11003 11001 10999 10998 10997 10996 10994
10932 10931 10931 10931 10931 10931 10930 10930 10929 10929 10929 10928 10927 10926 10926 10925 10925 10924 10924 10923 10923 10923 10923 10924 10924 10925 10926 10926 10928 10929 10930 10931 10933 10934 10935 10935 10936 10937 10938 10940 10941 10943 10945 10948 10950 10951 10951 10953 10955 10959 10963 10966 10968 10970 10973 10976 10979 10982 10985 10987 10990 10992 10995 10997 10999 11001 11004 11006 11008 11009 11009 11009 11009 11008 11008 11008 11007 11007 11006 11006 11005 11004 11003 11001 11000 10999 10997 10996
10929 10929 10929 10928 10928 10928 10927 10927 10926 10926 10925 10924 10924 10923 10922 10921 10921 10920 10919 10919 10918 10918 10919 10919 10920 10921 10921 10922 10923 10924 10925 10927 10928 10929 10931 10931 10932 10933 10935 10936 10937 10939 10941 10943 10945 10946 10947 10949 10951 10955 10959 10962 10964 10966 10969 10972 10975 10978 10981 10984 10987 10989 10992 10995 10997 10999 11002 11004 11006 11006 11007 11008 11008 11007 11007 11007 11007 11007 11006 11006 11005 11005 11003 11002 11001 11000 10998 10997
10927 10926 10926 10925 10925 10925 10924 10924 10923 10922 10922 10921 10920 10919 10918 10917 10916 10916 10915 10914 10914 10914 10914 10915 10915 10916 10917 10918 10918 10920 10921 10922 10924 10925 10926 10927 10929 10930 10931 10933 10934 10935 10937 10939 10941 10942 10942 10944 10946 10950 10954 10958 10960 10962 10965 10969 10972 10975 10978 10981 10983 10986 10990 10992 10994 10997 10999 11002 11003 11003 11005 11007 11006 11006 11006 11006 11006 11007 11007 11006 11006 11005 11004 11003 11002 11001 11000 10998
10924 10923 10923 10922 10922 10921 10921 10920 10919 10919 10918 10917 10916 10915 10914 10913 10912 10911 10910 10909 10909 10909 10910 10910 10911 10911 10912 10913 10914 10915 10916 10917 10919 10920 10921 10923 10924 10926 10927 10929 10930 10931 10933 10935 10937 10937 10939 10940 10942 10945 10950 10954 10956 10958 10961 10965 10968 10971 10974 10977 10980 10984 10987 10989 10992 10994 10996 10999 11001 11002 11004 11005 11004 11004 11005 11006 11006 11006 11007 11006 11006 11006 11005 11004 11002 11002 11001 11000
10921 10920 10920 10919 10918 10918 10917 10916 10916 10914 10913 10912 10911 10910 10909 10908 10907 10906 10905 10904 10904 10905 10905 10905 10906 10906 10907 10908 10909 10910 10911 10912 10914 10915 10917 10918 10920 10922 10923 10924 10926 10927 10929 10931 10932 10934 10935 10936 10937 10940 10944 10948 10952 10955 10957 10961 10964 10968 10971 10973 10976 10980 10983 10986 10988 10990 10993 10996 10998 10999 11000 11002 11003 11003 11004 11004 11005 11006 11006 11006 11006 11006 11005 11004 11003 11002 11002 11001
10917 10917 10916 10916 10915 10914 10913 10913 10911 10910 10909 10908 10907 10906 10905 10903 10902 10901 10900 10900 10899 10900 10900 10900 10901 10901 10902 10903 10904 10905 10906 10908 10909 10910 10912 10914 10915 10917 10918 10920 10922 10923 10925 10927 10929 10930 10931 10932 10934 10936 10938 10943 10947 10951 10954 10957 10960 10963 10966 10969 10972 10976 10979 10982 10985 10987 10989 10992 10994 10995 10997 10999 11001 11002 11002 11002 11003 11004 11005 11006 11006 11005 11005 11004 11004 11003 11003 11002
10914 10913 10913 10912 10911 10910 10910 10909 10907 10906 10905 10903 10902 10901 10900 10899 10897 10896 10895 10895 10894 10894 10895 10895 10896 10896 10896 10897 10899 10900 10901 10902 10904 10905 10907 10909 10910 10912 10914 10915 10917 10919 10920 10923 10925 10926 10927 10929 10930 10931 10934 10938 10943 10948 10951 10954 10956 10959 10961 10964 10967 10971 10974 10978 10981 10983 10986 10988 10991 10992 10994 10995 10997 10999 11000 11000 11001 11002 11004 11005 11005 11005 11005 11004 11004 11003 11003 11003
10911 10910 10909 10908 10907 10906 10905 10904 10903 10902 10900 10899 10898 10897 10895 10894 10892 10891 10890 10890 10889 10889 10889 10890 10891 10891 10891 10892 10893 10895 10896 10897 10899 10900 10902 10904 10905 10907 10909 10911 10912 10914 10916 10919 10921 10922 10923 10925 10926 10928 10929 10933 10938 10942 10946 10950 10952 10953 10955 10958 10962 10967 10971 10975 10978 10980 10981 10984 10987 10990 10992 10993 10994 10995 10997 10998 10999 11000 11002 11003 11004 11004 11004 11004 11004 11003 11003 11003
10907 10906 10905 10905 10904 10903 10901 10900 10899 10897 10896 10894 10893 10892 10890 10889 10887 10886 10885 10884 10884 10884 10884 10884 10885 10886 10886 10887 10888 10889 10890 10892 10894 10895 10897 10898 10900 10902 10904 10906 10908 10909 10912 10914 10916 10917 10919 10921 10922 10924 10926 10929 10933 10937 10942 10946 10947 10947 10950 10953 10957 10964 10968 10971 10974 10974 10976 10980 10983 10986 10988 10989 10990 10992 10994 10996 10997 10998 11000 11002 11003 11003 11004 11004 11003 11003 11003 11003
10904 10903 10902 10901 10900 10899 10897 10896 10895 10893 10892 10890 10889 10887 10885 10884 10882 10881 10880 10879 10879 10878 10878 10879 10880 10880 10881 10881 10882 10883 10885 10887 10888 10890 10891 10893 10895 10897 10899 10901 10903 10905 10907 10909 10911 10913 10915 10917 10919 10921 10922 10925 10929 10933 10937 10939 10940 10942 10945 10948 10953 10960 10962 10964 10967 10968 10971 10976 10978 10981 10983 10985 10987 10989 10992 10993 10995 10997 10999 11001 11002 11002 11002 11003 11003 11003 11002 11003
10900 10899 10898 10897 10896 10895 10893 10892 10890 10889 10887 10886 10884 10883 10881 10879 10877 10876 10875 10874 10873 10873 10873 10873 10874 10875 10875 10876 10877 10878 10880 10881 10883 10885 10886 10888 10889 10891 10894 10896 10898 10900 10902 10904 10906 10908 10911 10913 10915 10917 10919 10920 10923 10928 10930 10932 10935 10937 10940 10943 10948 10952 10955 10958 10961 10964 10968 10972 10974 10977 10980 10982 10985 10987 10989 10991 10993 10995 10997 10999 11000 11001 11001 11002 11002 11002 11002 11002
10896 10895 10894 10893 10892 10890 10889 10887 10886 10885 10883 10882 10880 10878 10877 10875 10873 10871 10870 10869 10868 10868 10868 10868 10868 10869 10869 10870 10871 10873 10874 10876 10877 10879 10881 10882 10884 10886 10889 10891 10893 10895 10898 10900 10902 10904 10906 10908 10910 10912 10914 10915 10919 10922 10924 10927 10930 10933 10935 10939 10942 10946 10950 10953 10956 10960 10964 10967 10970 10974 10977 10979 10981 10983 10986 10989 10991 10992 10994 10996 10998 10999 11000 11000 11001 11002 11001 11001
10893 10891 10890 10889 10887 10886 10884 10883 10881 10880 10879 10877 10876 10874 10872 10871 10869 10867 10865 10864 10863 10863 10863 10863 10863 10863 10863 10864 10866 10867 10869 10870 10872 10874 10875 10877 10879 10881 10883 10886 10888 10890 10893 10895 10897 10899 10901 10903 10905 10907 10909 10911 10914 10916 10919 10922 10925 10928 10930 10933 10937 10941 10945 10948 10952 10956 10960 10964 10967 10970 10973 10975 10977 10980 10983 10986 10988 10990 10991 10993 10995 10997 10998 10999 11000 11001 11001 11001
10889 10887 10886 10884 10883 10881 10880 10878 10877 10875 10874 10873 10871 10870 10868 10866 10865 10863 10861 10860 10859 10858 10858 10858 10858 10858 10858 10859 10860 10862 10864 10865 10867 10868 10870 10872 10874 10876 10878 10881 10883 10885 10888 10890 10892 10894 10896 10898 10900 10902 10904 10906 10908 10910 10913 10916 10920 10923 10925 10928 10932 10936 10939 10944 10948 10952 10956 10960 10963 10965 10967 10970 10973 10977 10980 10983 10985 10987 10988 10991 10993 10995 10997 10998 10999 11000 11000 11001
10884 10883 10881 10880 10879 10877 10875 10874 10872 10871 10869 10868 10867 10865 10864 10862 10860 10859 10857 10856 10855 10854 10853 10853 10853 10853 10853 10854 10855 10857 10858 10860 10862 10863 10865 10867 10869 10871 10874 10876 10878 10880 10883 10885 10887 10889 10891 10893 10895 10897 10899 10901 10903 10906 10908 10911 10915 10919 10921 10924 10927 10931 10935 10939 10943 10946 10951 10955 10957 10960 10962 10966 10970 10973 10976 10979 10982 10984 10986 10988 10990 10993 10994 10996 10997 10999 11000 11000
10879 10878 10877 10875 10874 10872 10870 10869 10868 10866 10865 10864 10862 10861 10860 10858 10856 10855 10853 10852 10851 10850 10849 10849 10848 10848 10848 10849 10850 10852 10853 10855 10857 10858 10861 10863 10864 10867 10869 10871 10873 10875 10878 10880 10881 10883 10886 10888 10890 10892 10895 10897 10899 10901 10903 10906 10910 10913 10916 10920 10924 10928 10930 10933 10937 10940 10945 10949 10952 10955 10959 10963 10967 10969 10972 10975 10979 10981 10983 10985 10988 10990 10992 10994 10996 10997 10998 10999
10875 10873 10872 10871 10869 10868 10866 10864 10863 10862 10861 10859 10858 10857 10856 10854 10852 10851 10849 10848 10847 10846 10846 10845 10844 10844 10844 10845 10846 10847 10849 10850 10852 10854 10856 10858 10860 10862 10864 10866 10868 10870 10872 10874 10876 10879 10881 10884 10885 10887 10889 10892 10894 10896 10898 10901 10904 10908 10912 10916 10920 10924 10926 10928 10932 10935 10940 10944 10947 10950 10954 10958 10962 10965 10968 10972 10976 10978 10980 10983 10986 10988 10990 10993 10995 10996 10996 10998
10869 10868 10867 10866 10865 10863 10861 10860 10859 10858 10856 10855 10854 10853 10851 10850 10848 10847 10845 10844 10843 10843 10842 10841 10841 10840 10841 10841 10842 10844 10845 10846 10848 10850 10852 10854 10856 10858 10860 10862 10864 10865 10867 10869 10871 10873 10876 10878 10880 10881 10884 10886 10889 10891 10893 10895 10898 10903 10907 10910 10915 10920 10921 10924 10928 10932 10936 10939 10941 10944 10948 10952 10957 10961 10964 10969 10973 10975 10977 10981 10984 10986 10989 10991 10993 10994 10995 10996
10864 10863 10862 10861 10860 10858 10857 10855 10854 10853 10852 10850 10849 10848 10847 10846 10844 10843 10841 10840 10839 10839 10839 10838 10837 10837 10838 10838 10838 10840 10841 10843 10845 10846 10848 10850 10852 10854 10855 10857 10859 10861 10862 10864 10866 10868 10870 10872 10874 10876 10878 10881 10883 10885 10887 10889 10892 10897 10900 10904 10910 10915 10917 10920 10924 10927 10930 10933 10935 10939 10943 10948 10954 10959 10962 10966 10970 10972 10976 10980 10982 10983 10986 10988 10989 10991 10993 10994
10860 10859 10857 10856 10855 10853 10852 10851 10850 10848 10847 10846 10845 10844 10843 10842 10840 10839 10838 10837 10836 10835 10835 10834 10834 10834 10835 10835 10836 10836 10838 10840 10842 10843 10845 10846 10848 10850 10851 10853 10855 10856 10857 10859 10861 10863 10865 10867 10869 10871 10873 10875 10877 10879 10881 10883 10887 10891 10895 10899 10905 10908 10912 10915 10918 10921 10924 10927 10930 10934 10939 10945 10951 10955 10959 10962 10966 10969 10973 10977 10979 10981 10983 10984 10986 10988 10990 10991
10855 10854 10853 10852 10850 10849 10847 10846 10845 10843 10842 10841 10840 10839 10838 10838 10837 10835 10834 10833 10832 10832 10831 10831 10831 10831 10832 10833 10833 10834 10835 10837 10839 10840 10842 10843 10845 10847 10848 10849 10851 10852 10853 10855 10856 10858 10860 10862 10864 10865 10867 10869 10871 10873 10875 10877 10881 10885 10889 10893 10897 10901 10906 10908 10910 10914 10917 10920 10925 10930 10935 10940 10945 10950 10954 10957 10960 10963 10967 10971 10973 10976 10979 10981 10982 10985 10986 10988
10850 10849 10848 10847 10846 10844 10843 10841 10840 10838 10837 10836 10835 10835 10834 10834 10833 10832 10830 10830 10829 10828 10828 10828 10828 10829 10829 10830 10831 10831 10832 10834 10836 10838 10839 10841 10842 10843 10845 10846 10847 10848 10849 10850 10852 10853 10855 10857 10859 10860 10862 10863 10866 10867 10869 10872 10875 10879 10882 10885 10889 10894 10899 10900 10903 10907 10911 10916 10922 10926 10931 10936 10942 10946 10949 10952 10954 10956 10961 10965 10968 10972 10975 10977 10979 10982 10984 10985
10845 10845 10844 10843 10841 10840 10838 10837 10835 10834 10833 10832 10831 10830 10830 10830 10829 10828 10827 10826 10825 10825 10825 10825 10826 10826 10827 10827 10828 10829 10830 10832 10833 10835 10837 10838 10839 10840 10842 10843 10844 10844 10845 10846 10848 10849 10850 10852 10853 10855 10857 10858 10860 10862 10864 10866 10869 10872 10874 10877 10882 10888 10891 10893 10896 10901 10906 10911 10915 10919 10925 10931 10937 10940 10941 10944 10947 10951 10956 10960 10964 10967 10969 10972 10976 10979 10980 10982
10841 10840 10840 10839 10838 10836 10834 10833 10831 10830 10829 10828 10827 10826 10826 10826 10826 10825 10824 10823 10822 10822 10822 10822 10823 10824 10824 10825 10825 10826 10827 10829 10831 10832 10834 10835 10836 10837 10838 10839 10840 10841 10841 10842 10844 10845 10846 10847 10849 10850 10852 10854 10855 10857 10858 10860 10862 10865 10867 10871 10877 10881 10884 10887 10890 10894 10899 10904 10907 10912 10917 10922 10928 10931 10933 10937 10942 10947 10951 10954 10959 10962 10964 10967 10971 10974 10976 10978
10837 10836 10836 10835 10834 10832 10831 10829 10828 10826 10825 10824 10823 10823 10823 10823 10822 10822 10822 10820 10820 10819 10819 10819 10820 10821 10822 10822 10823 10823 10825 10826 10828 10830 10831 10832 10833 10834 10835 10836 10837 10838 10838 10839 10839 10841 10842 10843 10844 10846 10847 10849 10850 10851 10853 10855 10857 10859 10861 10864 10870 10874 10877 10881 10884 10888 10893 10897 10900 10906 10910 10914 10921 10925 10928 10933 10937 10941 10945 10949 10952 10956 10959 10963 10966 10968 10971 10973
10833 10832 10832 10831 10830 10829 10827 10826 10825 10823 10821 10820 10820 10820 10819 10819 10819 10819 10819 10818 10817 10817 10817 10817 10817 10818 10819 10820 10820 10821 10822 10823 10825 10827 10828 10829 10830 10831 10832 10833 10833 10834 10834 10835 10835 10836 10838 10839 10840 10841 10842 10843 10845 10846 10848 10849 10851 10853 10855 10857 10862 10866 10870 10874 10878 10881 10885 10888 10893 10900 10904 10908 10915 10919 10923 10928 10931 10933 10938 10942 10945 10948 10953 10958 10961 10964 10966 10968
10829 10828 10828 10827 10826 10825 10824 10823 10822 10820 10818 10817 10817 10816 10816 10816 10816 10816 10816 10816 10815 10814 10814 10814 10815 10816 10817 10818 10818 10819 10819 10820 10822 10823 10825 10826 10827 10827 10828 10829 10830 10830 10831 10831 10831 10832 10833 10834 10835 10836 10837 10838 10840 10841 10842 10843 10846 10847 10848 10851 10856 10860 10863 10866 10870 10873 10876 10880 10887 10894 10898 10901 10906 10911 10916 10919 10922 10925 10930 10934 10938 10942 10947 10952 10956 10960 10962 10963
10824 10824 10823 10823 10822 10821 10820 10819 10818 10817 10815 10814 10814 10813 10813 10813 10813 10813 10813 10813 10812 10812 10812 10812 10812 10813 10814 10815 10816 10816 10817 10818 10819 10820 10821 10822 10823 10824 10824 10825 10826 10826 10826 10827 10827 10827 10828 10828 10829 10831 10832 10833 10834 10835 10836 10837 10840 10841 10843 10846 10850 10853 10855 10857 10862 10866 10870 10875 10880 10885 10889 10892 10897 10903 10907 10910 10914 10919 10922 10927 10931 10936 10941 10945 10950 10955 10957 10959
10819 10819 10819 10818 10817 10817 10816 10815 10815 10814 10812 10811 10811 10811 10810 10810 10810 10810 10810 10810 10810 10809 10809 10809 10810 10811 10811 10813 10814 10814 10815 10816 10817 10817 10818 10818 10819 10819 10820 10821 10821 10822 10822 10823 10823 10823 10823 10823 10823 10824 10826 10827 10828 10829 10830 10832 10834 10836 10838 10840 10843 10845 10847 10851 10855 10860 10864 10868 10873 10877 10881 10885 10890 10895 10897 10901 10907 10912 10915 10920 10925 10929 10933 10938 10943 10948 10952 10955
10814 10814 10814 10813 10813 10812 10812 10811 10811 10810 10809 10808 10808 10807 10807 10807 10806 10807 10807 10807 10807 10806 10806 10806 10807 10807 10808 10809 10810 10811 10812 10813 10814 10814 10814 10815 10815 10816 10816 10816 10816 10817 10817 10818 10818 10818 10818 10818 10818 10818 10819 10821 10821 10822 10823 10826 10828 10829 10832 10834 10836 10838 10841 10845 10849 10853 10856 10861 10865 10868 10872 10878 10883 10886 10889 10894 10900 10905 10909 10914 10918 10922 10927 10931 10936 10941 10946 10949
10808 10809 10809 10808 10808 10808 10807 10807 10806 10806 10805 10804 10804 10804 10803 10803 10803 10803 10803 10803 10803 10803 10803 10803 10803 10804 10804 10805 10806 10807 10808 10809 10810 10810 10810 10811 10811 10811 10812 10812 10812 10812 10812 10812 10813 10813 10813 10813 10813 10813 10813 10814 10815 10815 10817 10819 10821 10823 10825 10827 10829 10831 10834 10839 10842 10844 10847 10853 10857 10859 10864 10871 10875 10876 10880 10887 10893 10897 10902 10908 10911 10914 10920 10926 10931 10935 10939 10943
10803 10803 10803 10803 10803 10803 10803 10803 10802 10802 10801 10800 10800 10800 10800 10800 10800 10799 10799 10799 10799 10799 10799 10799 10799 10800 10800 10801 10802 10803 10804 10804 10805 10806 10806 10806 10806 10806 10807 10807 10807 10807 10807 10807 10807 10807 10808 10807 10808 10808 10807 10808 10808 10809 10810 10812 10814 10816 10817 10819 10822 10824 10827 10831 10835 10836 10840 10846 10849 10851 10858 10864 10865 10866 10872 10879 10884 10889 10895 10900 10903 10908 10916 10921 10925 10929 10933 10937
10798 10798 10797 10797 10797 10797 10798 10798 10797 10797 10797 10796 10796 10795 10795 10796 10796 10795 10795 10795 10795 10795 10795 10795 10795 10796 10796 10796 10797 10798 10799 10800 10800 10801 10801 10801 10801 10801 10801 10802 10802 10802 10802 10802 10802 10802 10803 10803 10802 10802 10802 10802 10802 10803 10804 10806 10807 10809 10810 10812 10814 10816 10819 10823 10827 10829 10833 10838 10841 10845 10851 10854 10854 10858 10865 10871 10875 10881 10887 10892 10897 10904 10911 10913 10917 10922 10928 10931
10793 10792 10791 10791 10791 10791 10792 10792 10792 10792 10792 10791 10791 10790 10791 10791 10791 10791 10791 10791 10791 10791 10791 10791 10791 10791 10791 10792 10793 10793 10794 10795 10795 10796 10797 10797 10797 10796 10796 10796 10797 10797 10797 10797 10797 10797 10798 10798 10797 10797 10797 10797 10797 10797 10798 10800 10802 10803 10804 10805 10807 10808 10810 10814 10818 10822 10826 10831 10835 10838 10843 10846 10847 10851 10858 10864 10868 10875 10881 10886 10891 10898 10902 10905 10910 10916 10921 10925
10786 10786 10786 10785 10785 10785 10786 10786 10786 10787 10787 10786 10786 10785 10786 10786 10787 10786 10786 10787 10787 10787 10787 10787 10787 10787 10787 10787 10788 10789 10790 10790 10791 10791 10792 10792 10792 10792 10792 10791 10791 10792 10792 10791 10792 10792 10792 10792 10792 10792 10792 10792 10792 10791 10792 10794 10796 10797 10798 10799 10800 10801 10802 10806 10809 10813 10819 10824 10828 10831 10836 10838 10838 10842 10850 10857 10862 10869 10875 10880 10885 10890 10893 10898 10904 10910 10915 10919
10780 10780 10779 10779 10779 10779 10780 10780 10780 10781 10782 10781 10781 10780 10780 10781 10782 10781 10781 10782 10782 10782 10783 10783 10783 10783 10783 10783 10783 10784 10785 10785 10786 10786 10787 10787 10787 10787 10787 10787 10786 10786 10786 10786 10787 10787 10787 10787 10787 10787 10786 10787 10787 10786 10787 10789 10790 10790 10792 10793 10793 10794 10795 10796 10800 10804 10809 10815 10819 10823 10827 10829 10829 10834 10842 10849 10856 10863 10870 10875 10880 10883 10886 10892 10898 10903 10908 10913
10773 10773 10773 10773 10773 10773 10773 10774 10774 10775 10776 10776 10776 10775 10775 10776 10776 10776 10776 10777 10777 10777 10778 10778 10778 10778 10779 10779 10779 10779 10780 10780 10781 10781 10782 10782 10782 10783 10782 10782 10781 10781 10781 10781 10782 10782 10782 10781 10781 10781 10781 10781 10782 10782 10782 10783 10784 10784 10785 10786 10786 10787 10787 10787 10790 10793 10798 10804 10810 10814 10818 10819 10822 10828 10835 10842 10849 10856 10863 10869 10873 10876 10880 10886 10892 10897 10902 10907
10766 10766 10766 10766 10766 10766 10767 10767 10768 10769 10769 10770 10770 10770 10769 10770 10771 10771 10771 10772 10772 10772 10772 10773 10773 10774 10775 10775 10775 10775 10775 10775 10776 10776 10776 10777 10777 10777 10777 10776 10776 10775 10775 10776 10776 10776 10776 10776 10776 10776 10776 10776 10776 10777 10778 10778 10778 10778 10779 10779 10779 10780 10779 10779 10781 10784 10788 10792 10798 10804 10808 10810 10815 10821 10827 10835 10843 10849 10856 10862 10866 10870 10874 10879 10886 10892 10897 10902
10758 10759 10759 10759 10759 10760 10760 10761 10761 10762 10763 10764 10764 10764 10764 10765 10765 10765 10766 10767 10767 10767 10767 10768 10768 10769 10770 10770 10770 10771 10771 10770 10771 10771 10771 10771 10771 10771 10771 10770 10771 10770 10770 10771 10771 10771 10771 10770 10770 10770 10770 10770 10771 10772 10773 10773 10773 10773 10773 10773 10773 10773 10772 10772 10773 10776 10779 10782 10786 10792 10796 10801 10807 10813 10820 10830 10837 10842 10849 10855 10859 10863 10867 10873 10881 10888 10892 10896
10749 10751 10751 10752 10752 10753 10753 10754 10755 10756 10757 10758 10758 10758 10758 10759 10759 10760 10760 10761 10762 10762 10762 10762 10763 10764 10764 10764 10765 10765 10766 10766 10766 10766 10766 10766 10766 10765 10765 10765 10765 10765 10765 10765 10765 10765 10765 10764 10764 10764 10765 10765 10766 10767 10767 10768 10768 10768 10768 10767 10767 10767 10766 10765 10766 10768 10770 10773 10776 10780 10785 10792 10799 10804 10812 10823 10830 10835 10841 10848 10854 10859 10862 10869 10877 10883 10888 10891
10740 10742 10743 10744 10745 10746 10746 10747 10748 10749 10750 10751 10752 10753 10753 10753 10754 10754 10754 10755 10756 10757 10757 10757 10759 10759 10759 10759 10760 10760 10761 10761 10761 10761 10761 10761 10761 10760 10760 10759 10760 10760 10760 10759 10758 10759 10759 10758 10758 10759 10759 10759 10760 10761 10762 10762 10762 10762 10762 10761 10761 10761 10760 10759 10759 10760 10762 10764 10767 10771 10777 10784 10790 10795 10804 10814 10820 10826 10833 10842 10851 10856 10859 10867 10873 10877 10882 10884
10732 10734 10735 10736 10737 10738 10739 10740 10741 10743 10744 10745 10746 10747 10747 10748 10748 10748 10748 10749 10750 10752 10752 10752 10754 10754 10753 10754 10755 10756 10756 10756 10756 10756 10756 10756 10756 10755 10755 10754 10754 10754 10754 10753 10752 10752 10753 10752 10752 10753 10753 10753 10754 10755 10756 10757 10757 10756 10756 10755 10755 10755 10754 10753 10753 10753 10754 10756 10759 10763 10769 10775 10779 10786 10796 10805 10812 10819 10826 10836 10846 10850 10853 10860 10864 10867 10870 10870
10724 10726 10727 10729 10730 10731 10732 10733 10734 10736 10738 10739 10740 10741 10741 10742 10742 10742 10743 10743 10744 10745 10746 10747 10748 10749 10749 10749 10750 10751 10751 10751 10751 10752 10752 10751 10751 10750 10749 10749 10748 10748 10748 10747 10747 10747 10747 10746 10746 10747 10747 10747 10748 10750 10751 10751 10751 10751 10751 10750 10750 10749 10748 10747 10746 10746 10747 10749 10751 10755 10760 10765 10770 10777 10788 10798 10806 10812 10818 10827 10836 10839 10843 10849 10852 10854 10857 10857